Home   Weather   Springfield   Past weeks

Flag for USA Past Weather in Springfield, Missouri, USA — Yesterday and Last 2 Weeks

Now
92 °F

Passing clouds.


Feels Like: 99 °F
Forecast: 75 / 94 °F
Wind: 10 mph from Southwest

Location: Springfield Regional Airport

Current Time: Jul 26, 2017 at 1:48:15 pm

Latest Report: Jul 26, 2017 at 12:52 pm


Visibility: 10 mi

Pressure: 30.02 "Hg

Humidity: 51%

Dew Point: 71 °F

Location of SpringfieldLocation

Past Weather in Springfield — Graph

°F

Springfield Temperature Yesterday

Maximum temperature yesterday: 97 °F (at 4:52 pm)
Minimum temperature yesterday: 71 °F (at 6:52 am)
Average temperature yesterday: 84 °F

High & Low Weather Summary for the Past Weeks

 TemperatureHumidityPressure
High97 °F (Jul 22, 2:52 pm)97% (Jul 12, 5:52 am)30.16 "Hg (Jul 12, 5:52 am)
Low68 °F (Jul 16, 4:52 am)36% (Jul 21, 4:52 pm)29.79 "Hg (Jul 22, 7:52 pm)
Average83 °F69%30.00 "Hg
* Reported Jul 11 11:59 am — Jul 26 11:52 am, Springfield. Weather by CustomWeather, © 2017

Note: Actual official high and low records may vary slightly from our data, if they occured in-between our weather recording intervals... More about our weather records

Advertising

Springfield Weather History for the Previous 24 Hours

Scroll right to see more
 ConditionsComfort  
Time TempWeatherWind HumidityBarometerVisibility
11:52 am
Wed, Jul 26
90 °FSunny.10 mph57%30.04 "Hg10 mi
10:52 am87 °FSunny.12 mph61%30.05 "Hg10 mi
9:52 am86 °FSunny.10 mph63%30.05 "Hg10 mi
8:52 am83 °FSunny.12 mph72%30.04 "Hg10 mi
7:52 am78 °FSunny.8 mph87%30.03 "Hg10 mi
6:52 am74 °FSunny.6 mph94%30.04 "Hg9 mi
5:52 am74 °FClear.6 mph94%30.03 "Hg10 mi
4:52 am74 °FClear.5 mph91%30.02 "Hg10 mi
3:52 am76 °FClear.7 mph88%30.03 "Hg10 mi
2:52 am76 °FClear.5 mph88%30.03 "Hg10 mi
1:52 am77 °FClear.5 mph82%30.03 "Hg10 mi
12:52 am80 °FClear.6 mph76%30.03 "Hg10 mi
11:52 pm
Tue, Jul 25
78 °FClear.5 mph79%30.03 "Hg10 mi
10:52 pm81 °FPassing clouds.6 mph72%30.02 "Hg10 mi
9:52 pm81 °FClear.6 mph69%30.02 "Hg10 mi
8:52 pm85 °FPassing clouds.No wind57%29.99 "Hg10 mi
7:52 pm87 °FSunny.6 mph55%30.00 "Hg10 mi
6:52 pm93 °FScattered clouds.6 mph49%30.00 "Hg10 mi
5:52 pm93 °FScattered clouds.7 mph44%30.00 "Hg10 mi
4:52 pm97 °FSunny.9 mph40%29.99 "Hg10 mi
3:52 pm96 °FSunny.6 mph41%30.01 "Hg10 mi
2:52 pm96 °FSunny.No wind40%30.02 "Hg10 mi
1:52 pm95 °FSunny.3 mph44%30.03 "Hg10 mi
Weather by CustomWeather, © 2017

See weather overviewHow to use our weather pages